www.pogodaiklimat.ru

Архив погоды в Санкт-Розе (Аргентина)

Время
(UTC), дата
10 6.04
11 6.04
12 6.04
13 6.04
14 6.04
15 6.04
16 6.04
17 6.04
18 6.04
19 6.04
20 6.04
21 6.04
22 6.04
23 6.04
00 7.04
01 7.04
02 7.04
03 7.04
04 7.04
05 7.04
06 7.04
07 7.04
08 7.04
09 7.04
10 7.04
11 7.04
12 7.04
13 7.04
14 7.04
15 7.04
16 7.04
17 7.04
18 7.04
19 7.04
20 7.04
21 7.04
22 7.04
23 7.04
00 8.04
01 8.04
02 8.04
03 8.04
04 8.04
05 8.04
06 8.04
07 8.04
08 8.04
09 8.04
10 8.04
11 8.04
12 8.04
13 8.04
14 8.04
15 8.04
16 8.04
17 8.04
18 8.04
19 8.04
20 8.04
21 8.04
22 8.04
23 8.04
00 9.04
01 9.04
02 9.04
03 9.04
04 9.04
05 9.04
06 9.04
07 9.04
08 9.04
09 9.04
10 9.04
11 9.04
12 9.04
13 9.04
14 9.04
15 9.04
16 9.04
17 9.04
18 9.04
19 9.04
20 9.04
21 9.04
22 9.04
23 9.04
00 10.04
01 10.04
02 10.04
03 10.04
04 10.04
05 10.04
06 10.04
07 10.04
08 10.04
09 10.04
10 10.04
11 10.04
12 10.04
13 10.04
14 10.04
15 10.04
16 10.04
17 10.04
18 10.04
19 10.04
20 10.04
21 10.04
22 10.04
23 10.04
00 11.04
01 11.04
02 11.04
03 11.04
04 11.04
05 11.04
06 11.04
07 11.04
08 11.04
09 11.04
10 11.04
11 11.04
12 11.04
13 11.04
14 11.04
15 11.04
16 11.04
17 11.04
18 11.04
19 11.04
20 11.04
21 11.04
22 11.04
23 11.04
00 12.04
01 12.04
02 12.04
03 12.04
04 12.04
05 12.04
06 12.04
07 12.04
08 12.04
09 12.04
11 12.04
12 12.04
13 12.04
14 12.04
15 12.04
16 12.04
17 12.04
18 12.04
19 12.04
20 12.04
21 12.04
22 12.04
23 12.04
00 13.04
01 13.04
02 13.04
03 13.04
04 13.04
05 13.04
06 13.04
07 13.04
08 13.04
Ветер
(напр.,м/с)
Видим. Явления Облачность Т
(С)
Тd
(С)
f
(%)
Тe
(С)
Тes
(С)
Комфортность P
(гПа)
Po
(гПа)
Тmin
(С)
Tmax
(С)
R
(мм)
R24
(мм)
S
(см)
С 6 30 км ясно +14.9 +11.8 82 +13 +13 1012.8 990.5
С 6 30 км 1/0
[Ci sp]
+14.2 +11.6 84 +12 +12 1012.8 990.4
С 7 30 км 1/0
[Ci sp]
+16.2 +12.8 80 +15 +15 1012.7 990.2 +13.6 +19.9
С 8 30 км 1/0
[Ci fib]
+20.0 +14.0 68 +21 +22 комфорт 1012.4 990.1
С 9 30 км ясно +23.6 +15.9 62 +27 +28 жарко 1012.2 990.0
С 9 30 км ясно +27.2 +18.2 58 +32 +33 очень душно 1011.6 989.6
С 8 30 км ясно +29.1 +19.0 54 +34 +37 очень душно 1011.2 989.3
С 6 30 км 5/5 1350 м
[Cu hum]
+29.7 +18.9 52 +35 +37 очень душно 1010.8 988.9
С 7 30 км 9/9 1350 м
[Cb cap]
+28.8 +19.0 55 +34 +34 очень душно 1009.9 988.0
С 9 5000 м гроза, ливневой дождь туман 9/9 1350 м
[Cb cap]
+21.8 +16.3 71 +26 +26 душно 1011.6 989.4
С 8 12 км в посл. час гроза {дождь} туман 9/9 1350 м
[Cb cap]
+19.6 +16.7 83 +21 +21 комфорт 1012.0 989.6
С 7 30 км {гроза} 6/6 1350 м
[Sc]
+20.8 +13.6 63 +23 +23 комфорт 1011.6 989.3
С 4 30 км 3/1 1350 м
[Sc Ci sp]
+19.8 +14.4 71 +22 +22 комфорт 1012.3 989.8
С 2 30 км ясно +17.7 +14.8 83 +18 +18 1013.2 990.6
С 3 30 км {гроза, дождь} ясно +17.7 +14.6 82 +18 +18 1013.9 991.4 +16.2 +30.4 7
С 3 30 км ясно +16.8 +14.7 87 +17 +17 1014.2 991.8
С 4 30 км ясно +16.2 +14.1 87 +16 +16 1014.7 992.4
С 4 30 км ясно +15.2 +13.4 89 +14 +14 1015.0 992.8
С 4 30 км ясно +14.8 +13.0 89 +14 +14 1015.4 993.3
С 4 30 км ясно +14.1 +13.2 94 +13 +13 1015.5 993.4
С 3 30 км ясно +13.8 +12.5 92 +13 +13 1015.4 993.2
СЗ 3 30 км ясно +13.3 +12.6 96 +12 +12 1015.4 992.9
СЗ 3 30 км 1/0
[Ci sp]
+12.9 +12.4 97 +12 +12 1015.2 992.6
СЗ 1 30 км ясно +12.4 +11.8 96 +12 +12 1015.4 992.9
З 2 30 км 3/0
[Ci sp]
+12.1 +11.5 96 +11 +11 1015.6 993.0
З 1 5000 м дымка 1/0
[Cs]
+10.9 +10.7 99 +10 +10 1015.9 993.2
З 1 10 км дымка ясно +11.8 +11.8 100 +11 +13 1016.1 993.4 +10.4 +17.8 7
З 2 30 км 1/0
[Ci sp]
+15.2 +14.2 94 +15 +19 1016.2 993.6
З 2 30 км ясно +18.3 +14.9 81 +19 +26 1016.1 993.6
В 2 30 км ясно +20.2 +13.3 65 +23 +33 комфорт 1015.8 993.3
СВ 3 30 км ясно +22.8 +15.2 62 +27 +37 душно 1014.9 992.5
С 3 30 км ясно +24.0 +17.0 65 +28 +37 душно 1014.2 991.8
С 4 30 км ясно +25.2 +17.3 62 +29 +36 душно 1013.2 990.9
С 5 30 км 1/0
[Ac cast]
+26.2 +17.4 58 +30 +33 душно 1012.5 990.2
С 6 30 км 1/0
[Ci sp]
+26.5 +17.5 58 +31 +32 душно 1011.9 989.7
С 5 30 км 1/0
[Ci sp]
+25.9 +17.2 59 +30 +30 душно 1011.8 989.4
С 4 30 км 1/0
[Ci sp]
+23.2 +17.1 69 +28 +28 душно 1011.5 989.0
С 4 30 км 3/0
[Ci sp]
+20.8 +16.4 76 +24 +24 комфорт 1011.7 989.2
С 4 30 км 3/0
[Ci sp]
+19.8 +16.0 79 +22 +22 комфорт 1012.0 989.4 +11.8 +26.8
С 4 30 км 4/0
[Ci sp]
+18.8 +15.6 82 +20 +20 1012.2 989.8
С 4 30 км 4/0
[Ci sp]
+17.9 +15.2 84 +18 +18 1012.4 990.0
С 5 30 км 1/0
[Ci sp]
+18.5 +14.9 80 +19 +19 1012.0 989.7
С 6 30 км 4/0
[Ci sp]
+18.1 +15.2 83 +18 +18 1011.3 989.0
С 7 30 км 8/0
[Cs]
+17.8 +15.3 85 +17 +17 1011.2 989.0
С 6 30 км 5/0
[Cs]
+17.3 +15.3 88 +17 +17 1010.8 988.6
С 3 30 км 3/0
[Ci sp]
+15.9 +14.7 93 +15 +15 1010.0 987.8
С 6 30 км ясно +15.9 +14.9 94 +14 +14 1009.1 987.0
С 4 30 км ясно +15.1 +14.2 94 +14 +14 1009.0 986.9
С 3 30 км ясно +15.4 +14.2 93 +15 +15 1009.4 987.2
С 5 30 км ясно +15.2 +14.0 93 +14 +14 1009.6 987.3
С 7 30 км ясно +17.1 +14.9 87 +16 +16 1009.8 987.4 +14.5 +19.8
С 7 30 км ясно +19.2 +15.7 80 +20 +21 1009.8 987.6
С 7 30 км ясно +22.4 +16.2 68 +27 +28 душно 1010.0 987.8
СЗ 6 30 км ясно +24.5 +14.9 55 +27 +31 жарко 1009.7 987.7
С 7 30 км ясно +26.8 +14.7 47 +29 +32 жарко 1009.1 987.0
С 6 30 км 4/0
[Cs]
+28.2 +14.9 44 +31 +34 душно 1008.2 986.2
С 7 30 км 4/0
[Cs]
+29.0 +15.9 45 +32 +34 душно 1007.2 985.3
С 6 30 км 3/0
[Ci fib]
+29.0 +14.5 41 +31 +33 жарко 1006.8 984.9
С 5 30 км 1/0
[Ci sp]
+29.0 +14.7 42 +31 +33 жарко 1006.7 984.8
С 4 30 км 3/0
[Ci sp]
+27.9 +15.7 47 +31 +31 душно 1006.9 984.9
С 3 30 км 3/0
[Ci sp]
+24.7 +15.8 58 +28 +28 душно 1007.2 985.0
С 2 30 км 1/0
[Ci sp]
+22.5 +15.0 63 +26 +26 жарко 1008.0 985.8
С 3 30 км 1/0
[Ci sp]
+21.2 +14.8 67 +24 +24 комфорт 1009.1 986.9 +17.1 +29.5
З 1 30 км 3/0
[Ci sp]
+19.1 +14.7 76 +22 +22 комфорт 1010.0 987.8
ЮЗ 3 30 км 3/0
[Ci sp]
+19.6 +13.7 69 +22 +22 комфорт 1011.2 989.0
З 1 30 км 3/0
[Ci sp]
+19.4 +14.5 73 +23 +23 комфорт 1012.3 990.2
Ю 2 30 км 1/0
[Ci sp]
+18.3 +14.4 78 +19 +19 1012.6 990.6
З 1 30 км ясно +17.6 +14.1 80 +19 +19 1013.4 991.4
Ю 3 30 км ясно +18.8 +10.3 58 +20 +20 1013.9 991.8
Ю 4 30 км ясно +18.2 +9.1 55 +18 +18 1014.1 992.1
Ю 10 8000 м пыльный позёмок 3/0
[Ci sp]
+16.4 +10.4 68 +15 +15 1015.4 993.3
Ю 8 8000 м пыльный позёмок 3/0
[Ci sp]
+15.0 +8.3 64 +13 +13 1017.1 994.9
Ю 9 9000 м пыльный позёмок 8/0
[Ac As Cs]
+13.3 +8.3 72 +10 +10 1018.5 996.1
Ю 10 8000 м пыльный позёмок 8/0
[Ac As Cs]
+12.6 +6.4 66 +9 +9 1019.5 996.9
Ю 10 8000 м пыльный позёмок 8/4 1500 м
[Sc Ac As Cs]
+12.3 +2.5 51 +9 +9 1020.3 997.7 +11.7 +21.2
Ю 8 15 км пыльный позёмок 9/4 1500 м
[Sc Ac As Cs]
+12.9 +1.9 47 +10 +11 1021.5 998.8
ЮВ 8 20 км пыльный позёмок 9/3 1500 м
[Sc Ac As Cs]
+13.6 +2.9 48 +11 +12 1021.9 999.2
ЮВ 7 30 км 9/3 1500 м
[Sc Ac As Cs]
+13.9 +4.2 52 +12 +13 1022.1 999.4
ЮВ 6 30 км 9/3 1500 м
[Sc Ac As Cs]
+14.8 +4.6 50 +13 +15 1021.8 999.0
Ю 7 30 км 9/1 1500 м
[Sc Ac As Cs]
+15.2 +4.1 47 +14 +15 1021.3 998.6
Ю 7 30 км 6/1 1500 м
[Sc Ac As Cs]
+16.4 +4.1 44 +15 +17 1020.7 998.1
Ю 6 30 км 5/0
[Ac As Cs]
+17.2 +5.0 44 +16 +18 1020.0 997.4
ЮВ 6 30 км 3/0
[Ac As Ci fib]
+17.4 +5.0 44 +17 +18 1019.5 996.9
Ю 5 30 км 8/0
[Ac As Ci fib]
+16.6 +3.8 42 +16 +16 1019.7 997.0
ЮВ 3 30 км 8/0
[Ac As]
+15.2 +5.7 53 +15 +15 1019.5 996.6
ЮВ 3 30 км 6/0
[Ac As]
+14.4 +4.6 52 +14 +14 1019.9 997.0
ЮВ 4 30 км 6/0
[Ac As]
+13.7 +3.6 50 +13 +13 1020.6 997.7 +12.3 +17.6
ЮВ 3 30 км 8/0
[Ac As Cs]
+12.6 +4.1 56 +11 +11 1021.2 998.2
ЮВ 3 30 км 9/0
[Ac As Cs]
+12.8 +4.9 59 +12 +12 1021.7 998.8
ЮВ 4 30 км 9/0
[Ac As Cs]
+13.1 +3.4 52 +12 +12 1022.2 999.3
ЮВ 5 30 км 10/0
[Ac As Cs]
+12.4 +2.1 49 +10 +10 1022.7 999.8
ЮВ 4 30 км 10/0
[Ac As Cs]
+11.8 +1.8 50 +10 +10 1023.2 1000.2
ЮВ 3 30 км 10/0
[Ac As Cs]
+11.5 +3.1 56 +10 +10 1023.7 1000.8
ЮВ 4 30 км 10/0
[Ac As Cs]
+11.1 +4.3 63 +9 +9 1023.4 1000.5
ЮВ 3 30 км 10/0
[Ac As Cs]
+10.7 +5.5 70 +9 +9 1023.4 1000.5
ЮВ 4 30 км 10/0
[Ac As Cs]
+10.4 +5.7 73 +8 +8 1024.2 1001.2
ЮВ 3 30 км 9/0
[Ac As Cs]
+10.2 +5.9 75 +8 +8 1024.8 1001.7
ЮВ 4 30 км 9/0
[Ac As Cs]
+9.6 +5.0 73 +7 +7 1025.4 1002.2
ЮВ 4 30 км 9/0
[Ac As Cs]
+9.5 +5.6 77 +7 +7 1026.6 1003.4 +9.5 +13.8
ЮВ 4 30 км 9/0
[Ac As Cs]
+10.5 +6.0 74 +8 +9 1027.5 1004.2
В 3 30 км 9/0
[Ac As Cs]
+11.2 +6.6 73 +9 +12 1027.8 1004.6
ЮВ 5 30 км 9/0
[Ac As Cs]
+11.7 +6.0 68 +9 +12 1027.3 1004.2
В 3 30 км 9/0
[Ac As Cs]
+13.0 +3.5 52 +12 +16 1027.4 1004.2
В 4 30 км 9/0
[Ac As Cs]
+14.4 +1.4 41 +14 +17 1026.9 1003.8
ЮВ 5 30 км 9/0
[Ac As Cs]
+14.1 +0.6 40 +13 +14 1025.8 1002.6
ЮВ 5 30 км 10/0
[Ac As Cs]
+13.9 +1.2 42 +12 +13 1025.8 1002.6
ЮВ 4 30 км 9/0
[Ac As Cs]
+13.6 +2.0 45 +12 +13 1026.0 1002.9
ЮВ 3 30 км 9/0
[Ac As Cs]
+13.1 +3.4 52 +12 +12 1025.6 1002.4
Ю 2 30 км 9/0
[Ac As Cs]
+12.6 +5.1 60 +12 +12 1026.1 1002.9
Ю 2 30 км 10/0
[Ac As]
+12.8 +4.1 55 +13 +13 1026.5 1003.3
ЮЗ 1 30 км 10/0
[Ac As Cs]
+12.4 +4.3 58 +13 +13 1026.7 1003.4 +9.5 +14.7
ЮЗ 1 30 км 10/0
[Ac As Cs]
+11.8 +5.9 67 +13 +13 1027.1 1003.8
З 2 12 км дым 10/0
[Ac As Cs]
+11.3 +7.2 76 +11 +11 1027.6 1004.4
ЮЗ 1 15 км дым 9/0
[Ac As Cs]
+11.0 +6.1 72 +11 +11 1027.4 1004.2
ЮЗ 1 30 км 9/0
[Ac As Cs]
+10.2 +6.1 76 +11 +11 1027.0 1003.8
Ю 1 30 км 9/0
[Ac As Cs]
+10.3 +5.1 70 +11 +11 1026.7 1003.6
С 1 30 км 10/0
[Ac As Ci sp]
+10.1 +6.0 76 +10 +10 1026.5 1003.4
В 1 30 км 10/0
[Ac As]
+10.2 +6.4 77 +11 +11 1026.0 1002.9
В 1 30 км 10/0
[Ac As]
+10.2 +5.9 75 +10 +10 1025.5 1002.4
В 2 30 км 10/10 1500 м
[Sc]
+10.0 +5.9 76 +9 +9 1025.5 1002.2
В 2 30 км 10/10 1500 м
[Sc]
+10.0 +6.2 77 +9 +9 1025.9 1002.6
СВ 3 30 км 10/3 600 м
[Sc Ac As]
+10.4 +6.6 77 +9 +9 1026.5 1003.3
СВ 4 30 км 10/4 600 м
[Sc Ac As]
+10.8 +7.5 80 +9 +9 1026.8 1003.6 +9.5 +12.5
С 5 30 км 10/5 750 м
[Sc As op]
+10.7 +8.3 85 +8 +8 1027.5 1004.2
С 5 30 км 10/5 750 м
[Sc As op]
+11.5 +8.1 80 +9 +9 1027.7 1004.5
С 5 3500 м слаб. морось 10/6 600 м
[Sc As op]
+10.9 +9.1 89 +8 +8 1027.9 1004.6
С 5 4500 м слаб. дождь {морось} 10/6 450 м
[Sc As op]
+10.5 +9.5 94 +7 +8 1027.8 1004.5
С 6 8000 м слаб. морось {дождь} 10/6 210 м
[St As op]
+11.2 +9.6 90 +8 +9 1027.2 1003.8
СВ 6 7000 м слаб. морось {дождь} 10/6 210 м
[St As op]
+11.6 +9.8 89 +9 +9 1026.2 1003.0 2
СВ 6 30 км в посл. час морось 10/6 210 м
[St As op]
+11.3 +9.5 89 +8 +8 1026.3 1003.0
СВ 6 30 км {морось} 10/5 450 м
[Sc Ac As]
+11.5 +8.9 84 +9 +9 1026.2 1003.0
СВ 5 10 км слаб. морось 10/6 210 м
[St Ac As]
+11.0 +9.0 87 +8 +8 1026.4 1003.0
СВ 5 30 км в посл. час морось 10/5 450 м
[Sc Ac As]
+10.4 +8.6 89 +7 +7 1026.4 1003.0
В 5 9000 м слаб. морось 10/10 400 м
[Sc]
+9.9 +7.8 87 +7 +7 1026.7 1003.4
В 4 7000 м слаб. морось 10/10 300 м
[St]
+9.6 +8.2 91 +7 +7 1027.2 1003.8 +9.1 +12.7 0.0
В 3 30 км в посл. час морось 10/10 210 м
[St]
+9.4 +8.4 93 +7 +7 1027.2 1003.8
В 3 30 км {морось} 10/10 210 м
[St]
+9.4 +8.4 93 +7 +7 1027.1 1003.8
СВ 4 6000 м слаб. морось 10/10 210 м
[St]
+9.4 +8.6 95 +7 +7 1027.3 1004.0
СВ 3 30 км в посл. час морось 10/10 210 м
[St]
+9.2 +8.8 97 +7 +7 1026.7 1003.4
СВ 3 30 км {морось} 10/10 180 м
[St]
+9.3 +8.9 97 +7 +7 1026.4 1003.0
В 3 4000 м слаб. морось 10/10 180 м
[St]
+9.4 +9.0 97 +7 +7 1025.8 1002.5 0.0
В 3 3000 м морось 10/10 180 м
[St]
+9.1 +8.9 99 +6 +6 1025.6 1002.2
В 3 30 км в посл. час морось 10/10 210 м
[St]
+9.3 +8.9 97 +7 +7 1024.9 1001.7
В 3 30 км {морось} 10/10 210 м
[St]
+9.6 +9.0 96 +7 +7 1025.4 1002.1
В 4 2500 м слаб. дождь 10/6 210 м
[Frnb As op]
+9.5 +9.5 100 +7 +7 1025.7 1002.4
В 5 9000 м слаб. морось {дождь} 10/6 210 м
[Frnb As op]
+9.8 +9.8 100 +7 +7 1025.4 1002.1 +9.0 +10.1 3
В 4 3500 м слаб. дождь {морось} 10/6 210 м
[Frnb As op]
+10.0 +10.0 100 +7 +7 1025.4 1002.1
В 4 4000 м слаб. дождь 10/6 210 м
[Frnb As op]
+10.0 +10.0 100 +7 +7 1025.6 1002.2
В 4 6000 м слаб. дождь 10/6 210 м
[Frnb As op]
+10.5 +10.5 100 +8 +8 1025.6 1002.2
В 5 6000 м слаб. дождь 10/6 210 м
[Frnb As op]
+10.8 +10.8 100 +8 +8 1025.1 1001.8
В 4 7000 м слаб. дождь 10/6 210 м
[Frnb As op]
+10.7 +10.7 100 +8 +8 1024.1 1000.8
В 5 9000 м слаб. дождь {морось} 10/6 210 м
[Frnb As op]
+10.8 +10.2 96 +8 +8 1023.5 1000.2 3
В 4 9000 м в посл. час дождь туман 10/6 210 м
[Frnb As op]
+10.7 +10.1 96 +8 +9 1023.6 1000.2
В 5 9000 м дымка {дождь} 10/6 210 м
[Frnb As op]
+10.7 +10.1 96 +8 +8 1023.2 1000.0
В 5 9000 м дымка {дождь} 10/6 360 м
[Frnb As op]
+11.0 +10.0 94 +8 +8 1023.0 999.8
В 4 5000 м слаб. дождь 10/10 360 м
[St]
+10.8 +10.2 96 +8 +8 1023.4 1000.2
В 4 20 км слаб. дождь 10/10 360 м
[St]
+11.8 +11.4 97 +9 +9 1023.9 1000.6
В 4 30 км в посл. час дождь 10/10 360 м
[St]
+11.6 +9.4 86 +9 +9 1024.3 1001.0 +9.5 +12.5 5
В 5 30 км {дождь} 10/10 360 м
[St]
+11.5 +11.3 99 +9 +9 1024.7 1001.4
В 4 30 км 10/5 360 м
[St As op]
+11.5 +11.3 99 +9 +9 1025.4 1002.2
В 5 10 км слаб. дождь 10/8 300 м
[Frnb As op]
+11.4 +11.2 99 +9 +9 1025.6 1002.4
В 4 4200 м слаб. дождь 10/8 300 м
[Frnb As op]
+11.1 +11.1 100 +8 +8 1025.5 1002.2
В 4 2400 м слаб. дождь 10/8 300 м
[Frnb As op]
+10.7 +10.7 100 +8 +8 1025.4 1002.2
В 7 30 км в посл. час дождь 10/8 300 м
[Frnb As op]
+10.5 +10.5 100 +7 +7 1025.2 1002.0 2
В 4 7000 м слаб. дождь 10/8 300 м
[Frnb As op]
+10.5 +10.5 100 +8 +8 1024.5 1001.3
В 5 4200 м слаб. дождь 10/9 210 м
[Frnb As op]
+10.8 +10.8 100 +8 +8 1023.8 1000.6
Местоположение метеостанции Санкт-Роза (Аргентина): широта -36.56 долгота -64.26 высота над уровнем моря 191 м.
В архиве по умолчанию представлена погода в Санкт-Розе за последнюю неделю. Архивные данные за месяц целиком и за предыдущие месяцы, начиная с января 2011 года, Вы можете получить, выбрав интересующий диапазон дат из раскрывающегося списка и нажав кнопку "Найти!".
*Определитесь, кто Вы:
Внимание! Время в таблицах - всемирное. Для получения местного времени необходимо прибавить поправку, которая равна -3 ч.
Некоторые строки с данными для отдельных станций могут быть выделены курсивом. Это означает, что фактические данные отсутствуют по различным причинам, а приведенные значения являются расчетными модельными данными для данного пункта наблюдений.
Смотрите также архив погоды в соседних городах и на ближайших метеорологических станциях:
Партнеры нашего сайта:      
Пояснения к столбцам:
  • Ветер - указаны скорость ветра в м/с - средняя за 10 мин, порывы в срок и между сроками (в фигурных скобках) и направление, откуда дует ветер: С - северный,
  • СВ - северо-восточный, В - восточный, ЮВ - юго-восточный, Ю - южный, ЮЗ - юго-западный, З - западный, СЗ - северо-западный.
  • Видимость - горизонтальная дальность видимости в метрах или километрах. При видимости от 1 до 10 км при отсутствии осадков обычно наблюдается дымка, при ухудшении видимости до 1 км и менее - туман. В сухую погоду видимость может ухудшаться дымом, пылью или мглою.
  • Явления - указаны атмосферные явления, наблюдавшиеся в срок или в последний час перед сроком; фигурными скобками обозначены явления, наблюдавшиеся между сроками (за 1-3 часа до срока); квадратными скобками обозначены град или гололедные отложения с указанием их диаметра в мм.
  • Облачность - указаны через наклонную черту общая и нижняя облачность в баллах и высота нижней границы облаков в метрах; квадратными скобками обозначены формы облаков: Ci - перистые, Cs - перисто-слоистые, Cc - перисто-кучевые, Ac - высококучевые, As - высокослоистые, Sc - слоисто-кучевые, Ns - слоисто-дождевые, Cu - кучевые, Cb - кучево-дождевые. Подробнее классификацию облаков см. в Атласе облаков (PDF).
  • T - Температура воздуха - температура, измеренная на высоте 2 м над землей.
  • Td - Температура точки росы - температура, при понижении до которой содержащийся в воздухе водяной пар достигнет насыщения.
  • f - Относительная влажность воздуха - влажноcть воздуха, измеренная на высоте 2 м над землей.
  • Te - Эффективная температура - температура, которую ощущает одетый по сезону человек в тени. Характеристика душности погоды. При расчете учитывается влияние влажности воздуха и скорости ветра на теплоощущения человека.
  • Tes - Эффективная температура на солнце - температура, которую ощущает человек, с поправкой на солнечный нагрев. Характеристика знойности погоды. Зависит от высоты солнца над горизонтом, облачности и скорости ветра. Ночью, в пасмурную погоду, а также при ветре 12 м/с и более поправка равна нулю.
  • P - Атмосферное давление - приведенное к уровню моря атмосферное давление.
  • Po - Атмосферное давление - измеренное на уровне метеостанции атмосферное давление.
  • Tmin - Минимальная температура - минимум температуры воздуха на высоте 2 м над землей.
  • Tmax - Максимальная температура - максимум температуры воздуха на высоте 2 м над землей.
  • R - Количество осадков - Количество выпавших осадков за период времени, мм. При наведении курсора мыши на число - период времени, за который выпало указанное количество осадков.
  • R24 - Количество осадков - Количество выпавших осадков за 24 часа, мм.
  • S - Снежный покров - Высота снежного покрова, см. При наведении курсора мыши на число - состояние снежного покрова и степень покрытия местности в баллах.